| time (UTC) | temp C | wind direction | speed KPH | gust KPH | rain 1hr cm | rain 24hr cm | rain mn cm | humidity % | barometer mb |
| 20260505112038 | 8 | 135 | 0.0 | 0.0 | 0.00 | 0.00 | 0.00 | 81 | 1015.2 |
| 20260505111507 | 8 | 135 | 0.0 | 0.0 | 0.00 | 0.00 | 0.00 | 81 | 1015.2 |
| 20260505110911 | -17 | 0.0 | 0.0 | 0.00 | 0.00 | 0.00 | 1015.2 | ||
| 20260505100709 | -17 | 0.0 | 0.0 | 0.00 | 0.00 | 0.00 | 1014.7 | ||
| 20260505093810 | -17 | 0.0 | 0.0 | 0.00 | 0.00 | 0.00 | 1014.7 | ||
| 20260505091640 | 9 | 135 | 0.0 | 0.0 | 0.00 | 0.00 | 0.00 | 76 | 1014.7 |
| 20260505091008 | 9 | 135 | 0.0 | 0.0 | 0.00 | 0.00 | 0.00 | 75 | 1014.7 |
| 20260505090510 | -17 | 0.0 | 0.0 | 0.00 | 0.00 | 0.00 | 1014.7 | ||
| 20260505083606 | 10 | 135 | 0.0 | 0.0 | 0.00 | 0.00 | 0.00 | 73 | 1014.7 |
| 20260505082809 | -17 | 0.0 | 0.0 | 0.00 | 0.00 | 0.00 | 1014.7 | ||
| 20260505080139 | -17 | 0.0 | 0.0 | 0.00 | 0.00 | 0.00 | 1014.4 | ||
| 20260505064638 | 12 | 135 | 1.6 | 0.0 | 0.00 | 0.00 | 0.00 | 64 | 1014.4 |
| 20260505063657 | 12 | 135 | 1.6 | 3.2 | 0.00 | 0.00 | 0.00 | 64 | 1014.4 |
| 20260505063135 | 12 | 135 | 3.2 | 3.2 | 0.00 | 0.00 | 0.00 | 65 | 1014.4 |
| 20260505062536 | -17 | 0.0 | 0.0 | 0.00 | 0.00 | 0.00 | 1014.4 | ||
| 20260505055834 | -17 | 0.0 | 0.0 | 0.00 | 0.00 | 0.00 | 1014.4 | ||
| 20260505053404 | 15 | 135 | 3.2 | 3.2 | 0.00 | 0.00 | 0.00 | 56 | 1014.7 |
| 20260505052906 | 16 | 135 | 6.4 | 6.4 | 0.00 | 0.00 | 0.00 | 53 | 1014.4 |
| 20260505051806 | 16 | 135 | 4.8 | 4.8 | 0.00 | 0.00 | 0.00 | 53 | 1014.4 |
| 20260505050603 | 15 | 135 | 0.0 | 0.0 | 0.00 | 0.00 | 0.00 | 54 | 1014.7 |
| 20260505034803 | 16 | 247 | 3.2 | 6.4 | 0.00 | 0.00 | 0.00 | 52 | 1014.7 |
| 20260505034539 | 16 | 135 | 0.0 | 0.0 | 0.00 | 0.00 | 0.00 | 52 | 1014.7 |
| 20260505032831 | 16 | 135 | 9.7 | 11.3 | 0.00 | 0.00 | 0.00 | 51 | 1014.7 |
| 20260505032234 | 16 | 135 | 4.8 | 4.8 | 0.00 | 0.00 | 0.00 | 51 | 1014.7 |
| 20260505030904 | -17 | 0.0 | 0.0 | 0.00 | 0.00 | 0.00 | 1014.7 | ||
| 20260505025526 | 17 | 135 | 3.2 | 4.8 | 0.00 | 0.00 | 0.00 | 52 | 1015.2 |
| 20260505025024 | 17 | 135 | 4.8 | 4.8 | 0.00 | 0.00 | 0.00 | 52 | 1015.2 |
| 20260505024504 | -17 | 0.0 | 0.0 | 0.00 | 0.00 | 0.00 | 1015.2 | ||
| 20260505022312 | 17 | 135 | 1.6 | 3.2 | 0.00 | 0.00 | 0.00 | 54 | 1014.7 |
| 20260505021801 | 17 | 135 | 3.2 | 3.2 | 0.00 | 0.00 | 0.00 | 54 | 1014.7 |
| 20260505021302 | -17 | 0.0 | 0.0 | 0.00 | 0.00 | 0.00 | 1014.7 | ||
| 20260505014659 | 17 | 135 | 3.2 | 3.2 | 0.00 | 0.00 | 0.00 | 53 | 1014.4 |
| 20260505014032 | -17 | 0.0 | 0.0 | 0.00 | 0.00 | 0.00 | 1014.4 | ||
| 20260505012300 | 17 | 135 | 1.6 | 4.8 | 0.00 | 0.00 | 0.00 | 51 | 1014.1 |
| 20260505011730 | 17 | 292 | 3.2 | 4.8 | 0.00 | 0.00 | 0.00 | 51 | 1014.1 |
| 20260505011231 | 18 | 135 | 4.8 | 4.8 | 0.00 | 0.00 | 0.00 | 50 | 1014.1 |
| 20260505010400 | -17 | 0.0 | 0.0 | 0.00 | 0.00 | 0.00 | 1014.1 | ||
| 20260505005134 | 18 | 135 | 3.2 | 4.8 | 0.00 | 0.00 | 0.00 | 49 | 1013.7 |
| 20260505004631 | -17 | 0.0 | 0.0 | 0.00 | 0.00 | 0.00 | 1013.7 | ||
| 20260505002900 | 19 | 135 | 3.2 | 4.8 | 0.00 | 0.00 | 0.00 | 46 | 1013.3 |
| 20260505002035 | 19 | 135 | 1.6 | 4.8 | 0.00 | 0.00 | 0.00 | 46 | 1013.3 |
| 20260505001531 | 19 | 135 | 0.0 | 0.0 | 0.00 | 0.00 | 0.00 | 46 | 1013.3 |
| 20260505001031 | -17 | 0.0 | 0.0 | 0.00 | 0.00 | 0.00 | 1013.3 | ||
| 20260504235459 | 20 | 135 | 3.2 | 3.2 | 0.00 | 0.00 | 0.00 | 45 | 1013.3 |
| 20260504234459 | 20 | 135 | 1.6 | 3.2 | 0.00 | 0.00 | 0.00 | 44 | 1013.0 |
| 20260504233529 | 20 | 135 | 0.0 | 0.0 | 0.00 | 0.00 | 0.00 | 44 | 1013.0 |
| 20260504233231 | -17 | 0.0 | 0.0 | 0.00 | 0.00 | 0.00 | 1013.0 | ||
| 20260504231002 | -17 | 0.0 | 0.0 | 0.00 | 0.00 | 0.00 | 1012.6 | ||
| 20260504224101 | 21 | 135 | 4.8 | 8.0 | 0.00 | 0.00 | 0.00 | 40 | 1012.6 |
| 20260504223558 | -17 | 0.0 | 0.0 | 0.00 | 0.00 | 0.00 | 1012.6 | ||
| 20260504220428 | -17 | 0.0 | 0.0 | 0.00 | 0.00 | 0.00 | 1012.6 | ||
| 20260504213547 | 24 | 135 | 3.2 | 8.0 | 0.00 | 0.00 | 0.00 | 33 | 1012.6 |
| 20260504213028 | 23 | 135 | 1.6 | 1.6 | 0.00 | 0.00 | 0.00 | 32 | 1012.6 |
| 20260504212446 | 23 | 135 | 1.6 | 1.6 | 0.00 | 0.00 | 0.00 | 32 | 1012.6 |
| 20260504211927 | -17 | 0.0 | 0.0 | 0.00 | 0.00 | 0.00 | 1012.6 | ||
| 20260504210228 | 24 | 135 | 1.6 | 1.6 | 0.00 | 0.00 | 0.00 | 30 | 1012.6 |
| 20260504205957 | -17 | 0.0 | 0.0 | 0.00 | 0.00 | 0.00 | 1012.6 | ||
| 20260504204027 | -17 | 0.0 | 0.0 | 0.00 | 0.00 | 0.00 | 1013.0 | ||
| 20260504201358 | -17 | 0.0 | 0.0 | 0.00 | 0.00 | 0.00 | 1013.0 | ||
| 20260504191656 | -17 | 0.0 | 0.0 | 0.00 | 0.00 | 0.00 | 1014.1 | ||
| 20260504190202 | 24 | 135 | 6.4 | 9.7 | 0.00 | 0.00 | 0.00 | 35 | 1014.1 |
| 20260504185654 | -17 | 0.0 | 0.0 | 0.00 | 0.00 | 0.00 | 1014.1 | ||
| 20260504184341 | 23 | 135 | 3.2 | 4.8 | 0.00 | 0.00 | 0.00 | 37 | 1014.4 |
| 20260504183825 | 23 | 135 | 4.8 | 6.4 | 0.00 | 0.00 | 0.00 | 37 | 1014.4 |
| 20260504182645 | 23 | 135 | 3.2 | 6.4 | 0.00 | 0.00 | 0.00 | 37 | 1014.7 |
| 20260504182125 | -17 | 0.0 | 0.0 | 0.00 | 0.00 | 0.00 | 1014.7 | ||
| 20260504174503 | 22 | 135 | 1.6 | 3.2 | 0.00 | 0.00 | 0.00 | 40 | 1015.2 |
| 20260504173953 | 22 | 135 | 3.2 | 3.2 | 0.00 | 0.00 | 0.00 | 40 | 1015.2 |
| 20260504173456 | -17 | 0.0 | 0.0 | 0.00 | 0.00 | 0.00 | 1015.2 | ||
| 20260504171823 | 22 | 135 | 0.0 | 1.6 | 0.00 | 0.00 | 0.00 | 42 | 1015.2 |
| 20260504171323 | -17 | 0.0 | 0.0 | 0.00 | 0.00 | 0.00 | 1015.5 | ||
| 20260504160356 | 19 | 135 | 1.6 | 3.2 | 0.00 | 0.00 | 0.00 | 48 | 1016.6 |